Location: Unspecified
(42.0334°N, 93.6656°W)
Time: 06:59:45
(UTC-06:00)

Amateur Radio Satellites - All Passes

Search period start: 17 January 2017 06:29
Search period end: 18 January 2017 06:29
Location: Unspecified, 42.0334°N, 93.6656°W

Satellite Date Start Highest point End Downlink Frequencies (MHz)
Time Altitude Azimuth
LilacSat-2 17 Jan 06:31:39 06:35:31 88° 103° (ESE) 06:39:23 437.200
PHONESAT 2.4 17 Jan 06:32:54 06:35:10 50° 187° (S) 06:37:26 2401.200-2431.200
CUTE-I 17 Jan 06:34:16 06:39:36 70° 102° (ESE) 06:44:55 437.470
ISS 17 Jan 06:37:36 06:40:39 38° 222° (SW) 06:43:41 145.825
GOMX 1 17 Jan 06:45:14 06:49:19 33° 291° (WNW) 06:53:10 467.674
NOAA 18 17 Jan 06:49:45 06:55:05 51° 101° (E) 07:00:22 137.9125
AIST 2 17 Jan 06:58:10 06:59:48 12° 252° (WSW) 07:01:25 435.215
HORYU 2 17 Jan 06:58:39 07:02:02 22° 295° (WNW) 07:05:25 437.375
CUTE 1.7 + AOD 2 17 Jan 07:13:51 07:17:26 25° 95° (E) 07:20:58 437.475
STRAND 1 17 Jan 07:15:36 07:20:30 49° 260° (W) 07:25:28 437.568
Cubesat XI-IV 17 Jan 07:16:23 07:21:32 51° 290° (WNW) 07:26:41 437.490
O/OREOS (USA 219) 17 Jan 07:29:32 07:34:00 70° 293° (WNW) 07:38:29 437.305
PRISM 17 Jan 07:33:06 07:35:22 14° 63° (ENE) 07:37:39 437.425
NOAA 15 17 Jan 07:39:23 07:44:01 31° 294° (WNW) 07:48:37 137.62
HO-68 17 Jan 07:40:52 07:47:53 52° 101° (E) 07:54:49 435.675
CANX-2 17 Jan 07:41:46 07:46:03 60° 100° (E) 07:50:16 2200.000
DOVE 4 17 Jan 07:44:06 07:47:11 20° 294° (WNW) 07:50:13 437.250
CUBEBUG 2 17 Jan 07:45:17 07:48:44 23° 95° (E) 07:52:15 437.445
Cosmos 2499 17 Jan 07:51:37 07:58:43 62° 267° (W) 08:05:37 435.465 / 435.565
SEEDS 17 Jan 08:00:49 08:05:02 56° 100° (E) 08:09:12 437.485
CINEMA 3 17 Jan 08:01:46 08:05:50 52° 286° (WNW) 08:09:56 145.822/145.860
PHONESAT 2.4 17 Jan 08:07:27 08:09:05 17° 203° (SSW) 08:10:43 2401.200-2431.200
SO-50 17 Jan 08:10:30 08:14:32 28° 114° (ESE) 08:18:32 436.795
COMPASS 1 17 Jan 08:13:30 08:17:37 50° 99° (E) 08:21:42 437.405
CUTE-I 17 Jan 08:15:46 08:19:03 17° 300° (WNW) 08:22:22 437.470
UWE-3 17 Jan 08:21:14 08:25:14 36° 98° (E) 08:29:19 435.000/436.395/437.385
GONETS M04 17 Jan 08:21:16 08:29:49 56° 270° (W) 08:38:20
RS-15 17 Jan 08:24:10 08:36:23 58° 47° (NE) 08:48:09 29.354- 29.394
UNISAT 6 17 Jan 08:24:15 08:26:42 15° 64° (ENE) 08:29:10 437.425
FUNcube-1 17 Jan 08:27:55 08:31:27 24° 95° (E) 08:35:02 145.935
AAUSAT CUBESAT 2 17 Jan 08:28:38 08:32:47 57° 100° (E) 08:36:53 437.432
NOAA 18 17 Jan 08:31:11 08:35:22 23° 298° (WNW) 08:39:32 137.9125
TIGRISAT 17 Jan 08:38:06 08:41:08 19° 66° (ENE) 08:44:11 435.000
ZACube-1 17 Jan 08:48:21 08:52:30 43° 99° (E) 08:56:44 437.345
CUTE 1.7 + AOD 2 17 Jan 08:49:31 08:53:13 29° 291° (WNW) 08:56:55 437.475
ANTELSAT 17 Jan 08:51:39 08:55:18 28° 69° (ENE) 08:58:58 437.575/2403.000
JAS-2 17 Jan 08:52:59 08:55:30 13° 55° (NE) 08:58:07 435.910
PRISM 17 Jan 09:06:09 09:10:14 53° 260° (W) 09:14:19 437.425
CANX-2 17 Jan 09:19:16 09:21:23 13° 297° (WNW) 09:23:29 2200.000
CUBEBUG 2 17 Jan 09:21:35 09:25:22 31° 290° (WNW) 09:29:14 437.445
HO-68 17 Jan 09:29:06 09:35:17 32° 299° (WNW) 09:41:26 435.675
Oscar 11 17 Jan 09:31:39 09:36:00 75° 284° (WNW) 09:40:21 145.826/435.025
HUMSAT D 17 Jan 09:32:31 09:35:46 21° 94° (E) 09:39:01 437.325/437.525
SEEDS 17 Jan 09:38:00 09:40:14 14° 297° (WNW) 09:42:29 437.485
NANOSAT C BR1 17 Jan 09:48:16 09:49:25 11° 61° (ENE) 09:50:35 145.865
COMPASS 1 17 Jan 09:50:20 09:52:44 15° 296° (WNW) 09:55:08 437.405
SO-50 17 Jan 09:50:30 09:54:53 37° 311° (NW) 09:59:13 436.795
PCSat 17 Jan 09:56:02 10:01:04 36° 51° (NE) 10:06:02 145.827
UWE-3 17 Jan 09:58:13 10:01:28 21° 293° (WNW) 10:04:47 435.000/436.395/437.385
UNISAT 6 17 Jan 09:58:52 10:03:01 50° 260° (W) 10:07:10 437.425
FUNcube-1 17 Jan 10:03:51 10:07:41 31° 290° (WNW) 10:11:35 145.935
AAUSAT CUBESAT 2 17 Jan 10:05:43 10:07:45 13° 297° (WNW) 10:09:46 437.432
TIGRISAT 17 Jan 10:13:37 10:17:35 37° 262° (W) 10:21:33 435.000
DELFI C3 17 Jan 10:17:58 10:21:57 63° 285° (WNW) 10:25:53 145.870
ZACube-1 17 Jan 10:25:30 10:28:29 18° 294° (WNW) 10:31:30 437.345
ANTELSAT 17 Jan 10:28:29 10:31:59 25° 265° (W) 10:35:31 437.575/2403.000
BY70-1 17 Jan 10:32:52 10:35:30 21° 94° (E) 10:38:03 436.1900
BUGSAT 1 17 Jan 10:33:59 10:35:13 11° 62° (ENE) 10:36:28 437.445
JAS-2 17 Jan 10:34:24 10:39:38 87° 252° (WSW) 10:45:22 435.910
QB50P1 17 Jan 10:35:09 10:39:01 37° 71° (ENE) 10:42:54 145.935-145.965
RS-15 17 Jan 10:37:14 10:48:41 48° 251° (WSW) 10:59:43 29.354- 29.394
POLYITAN 1 17 Jan 10:38:04 10:41:59 40° 71° (ENE) 10:45:56 437.675
QB50P2 17 Jan 10:39:05 10:43:05 44° 72° (ENE) 10:47:06 145.880/145.840
CUBEBUG 1 17 Jan 10:50:34 10:51:22 10° 89° (E) 10:52:11 437.445
POPSAT HIP 1 17 Jan 11:01:21 11:05:31 73° 75° (ENE) 11:09:43 437.405
ESTCUBE 1 17 Jan 11:01:41 11:05:31 26° 95° (E) 11:09:17 437.505/2401.250
HUMSAT D 17 Jan 11:07:34 11:11:26 34° 290° (WNW) 11:15:19 437.325/437.525
DUCHIFAT 1 17 Jan 11:16:43 11:20:54 86° 258° (WSW) 11:25:06 145.980
NANOSAT C BR1 17 Jan 11:20:22 11:24:32 72° 258° (WSW) 11:28:44 145.865
VELOX 1 17 Jan 11:29:05 11:32:07 18° 93° (E) 11:35:07 145.980
Oscar 19 17 Jan 11:38:45 11:42:27 20° 62° (ENE) 11:46:10 437.125/150
PCSat 17 Jan 11:39:32 11:44:24 35° 250° (WSW) 11:49:15 145.827
BY70-1 17 Jan 12:03:07 12:05:49 22° 291° (WNW) 12:08:24 436.1900
50 SAT 17 Jan 12:04:31 12:07:43 30° 97° (E) 12:10:53 437.505
BUGSAT 1 17 Jan 12:06:00 12:10:03 66° 258° (WSW) 12:14:06 437.445
QB50P1 17 Jan 12:11:59 12:14:55 18° 267° (W) 12:17:52 145.935-145.965
DX 1 17 Jan 12:12:34 12:16:10 25° 95° (E) 12:19:43 434.975-435.025
POLYITAN 1 17 Jan 12:15:13 12:17:57 17° 267° (W) 12:20:42 437.675
QB50P2 17 Jan 12:16:35 12:19:06 15° 268° (W) 12:21:38 145.880/145.840
UKube-1 17 Jan 12:18:59 12:22:17 21° 94° (E) 12:25:36 .
SPROUT 17 Jan 12:23:27 12:27:37 52° 100° (E) 12:31:45 437.525
CUBEBUG 1 17 Jan 12:23:48 12:28:08 69° 285° (WNW) 12:32:24 437.445
AISAT 17 Jan 12:30:45 12:35:11 89° 103° (ESE) 12:39:33 437.250
Cosmos 2491 17 Jan 12:35:31 12:43:14 33° 69° (ENE) 12:50:57 435.465 / 435.565
ESTCUBE 1 17 Jan 12:38:18 12:42:17 31° 292° (WNW) 12:46:15 437.505/2401.250
YUBILEINY 17 Jan 12:48:40 12:52:35 14° 74° (ENE) 12:56:29 435.215
Gurwin Techsat 1B 17 Jan 13:02:18 13:07:30 60° 72° (ENE) 13:12:45 435.225
VELOX 1 17 Jan 13:04:36 13:08:45 42° 289° (WNW) 13:12:52 145.980
AO-7 17 Jan 13:14:46 13:21:18 26° 53° (NE) 13:27:50 29.400- 29.500
Oscar 19 17 Jan 13:16:15 13:21:20 55° 259° (W) 13:26:28 437.125/150
50 SAT 17 Jan 13:38:22 13:40:42 17° 293° (WNW) 13:43:00 437.505
DX 1 17 Jan 13:48:33 13:52:19 30° 292° (WNW) 13:56:04 434.975-435.025
ITAMSAT 1 17 Jan 13:51:56 13:56:38 36° 68° (ENE) 14:01:20 435.822/435.867
AO-85 17 Jan 13:54:09 13:57:46 22° 113° (ESE) 14:01:13 145.980
UKube-1 17 Jan 13:54:30 13:58:24 34° 291° (WNW) 14:02:16 .
CUSAT 1 17 Jan 13:56:26 14:04:00 46° 72° (ENE) 14:11:18 437.405
SPROUT 17 Jan 14:00:43 14:03:06 15° 296° (WNW) 14:05:30 437.525
TISAT 1 17 Jan 14:03:43 14:07:54 84° 284° (WNW) 14:12:04 437.305
ITUPSAT 1 17 Jan 14:05:17 14:08:44 19° 93° (E) 14:12:11 437.325
DANDE 17 Jan 14:12:05 14:18:00 25° 67° (ENE) 14:24:26 436.750
Cosmos 2504 17 Jan 14:13:35 14:20:40 29° 84° (E) 14:27:28 435.465 / 435.565
AIST 1 17 Jan 14:28:59 14:33:22 83° 96° (E) 14:37:45
Cosmos 2491 17 Jan 14:31:59 14:40:28 57° 270° (W) 14:48:58 435.465 / 435.565
YUBILEINY 17 Jan 14:38:57 14:47:42 74° 94° (E) 14:56:32 435.215
BEESAT 17 Jan 14:41:25 14:46:01 45° 99° (E) 14:50:36 436.000
SWISSCUBE 17 Jan 14:42:37 14:47:19 52° 100° (E) 14:52:00 437.505
Gurwin Techsat 1B 17 Jan 14:44:23 14:47:51 17° 269° (W) 14:51:19 435.225
AO-7 17 Jan 15:04:52 15:13:13 78° 253° (WSW) 15:21:40 29.400- 29.500
MOZHAYETS 4 17 Jan 15:07:26 15:11:20 26° 95° (E) 15:15:12
ITAMSAT 1 17 Jan 15:31:45 15:36:08 28° 264° (W) 15:40:33 435.822/435.867
AO-85 17 Jan 15:33:29 15:37:58 44° 308° (NW) 15:42:10 145.980
CUSAT 1 17 Jan 15:38:31 15:45:51 42° 271° (W) 15:52:52 437.405
ITUPSAT 1 17 Jan 15:42:11 15:46:47 46° 289° (WNW) 15:51:22 437.325
AUBIESAT-1 17 Jan 15:46:12 15:48:06 14° 98° (E) 15:49:58 437.475
BRITE-PL 17 Jan 15:52:48 15:58:11 46° 71° (ENE) 16:03:34 437.365/2234.400
DANDE 17 Jan 15:53:45 16:01:16 78° 263° (W) 16:09:38 436.750
O/OREOS (USA 219) 17 Jan 16:00:18 16:04:02 25° 58° (ENE) 16:07:45 437.305
Cosmos 2504 17 Jan 16:04:52 16:13:31 62° 281° (WNW) 16:21:44 435.465 / 435.565
KKS-1 17 Jan 16:11:25 16:15:32 37° 98° (E) 16:19:37 437.445
GOMX 1 17 Jan 16:14:46 16:19:30 31° 68° (ENE) 16:24:06 467.674
CUTE-I 17 Jan 16:19:12 16:22:26 17° 60° (ENE) 16:25:41 437.470
HORYU 2 17 Jan 16:19:51 16:23:53 36° 70° (ENE) 16:27:56 437.375
BEESAT 17 Jan 16:19:57 16:23:29 21° 296° (WNW) 16:27:00 436.000
SWISSCUBE 17 Jan 16:21:26 16:24:41 18° 297° (WNW) 16:27:57 437.505
YUBILEINY 17 Jan 16:38:27 16:45:23 25° 295° (WNW) 16:52:24 435.215
NOAA 18 17 Jan 16:38:58 16:42:02 15° 58° (ENE) 16:45:06 137.9125
M-CUBED/EXP-1 PRIME 17 Jan 16:39:46 16:43:11 80° 291° (WNW) 16:46:28 437.505
SO-50 17 Jan 16:41:02 16:45:01 29° 46° (NE) 16:48:57 436.795
MOZHAYETS 4 17 Jan 16:44:22 16:48:30 32° 291° (WNW) 16:52:36
Cubesat XI-IV 17 Jan 16:59:22 17:04:10 36° 67° (ENE) 17:08:59 437.490
AO-7 17 Jan 17:02:54 17:07:14 15° 272° (W) 17:11:36 29.400- 29.500
BEESAT 3 17 Jan 17:08:30 17:12:19 60° 120° (ESE) 17:16:13 437.485
DOVE 4 17 Jan 17:10:42 17:15:27 42° 71° (ENE) 17:19:59 437.250
STARS 17 Jan 17:13:43 17:18:07 81° 104° (ESE) 17:22:28 437.465
LilacSat-2 17 Jan 17:13:46 17:17:20 43° 73° (ENE) 17:20:56 437.200
AUBIESAT-1 17 Jan 17:19:38 17:22:40 30° 295° (WNW) 17:25:36 437.475
NOAA 15 17 Jan 17:19:45 17:24:55 58° 72° (ENE) 17:30:09 137.62
CUBESAT XI-V 17 Jan 17:20:41 17:25:25 84° 282° (WNW) 17:30:05 437.345
CINEMA 3 17 Jan 17:28:44 17:31:04 14° 64° (ENE) 17:33:21 145.822/145.860
BRITE-PL 17 Jan 17:32:04 17:36:45 26° 267° (W) 17:41:29 437.365/2234.400
DANDE 17 Jan 17:38:46 17:43:06 16° 278° (W) 17:47:38 436.750
O/OREOS (USA 219) 17 Jan 17:39:25 17:43:28 33° 255° (WSW) 17:47:31 437.305
BEESAT 2 17 Jan 17:45:59 17:49:53 66° 120° (ESE) 17:53:51 435.950
KKS-1 17 Jan 17:48:30 17:51:51 21° 295° (WNW) 17:55:11 437.445
GOMX 1 17 Jan 17:52:28 17:57:27 35° 264° (W) 18:02:17 467.674
CUTE-I 17 Jan 17:56:36 18:01:53 71° 258° (WSW) 18:07:12 437.470
HORYU 2 17 Jan 17:57:13 18:00:32 21° 266° (W) 18:03:52 437.375
Cosmos 2504 17 Jan 18:05:26 18:08:38 12° 303° (WNW) 18:11:47 435.465 / 435.565
CUTE 1.7 + AOD 2 17 Jan 18:07:18 18:10:20 19° 66° (ENE) 18:13:23 437.475
HO-68 17 Jan 18:09:51 18:16:28 41° 64° (ENE) 18:23:05 435.675
NOAA 18 17 Jan 18:16:28 18:21:59 82° 256° (WSW) 18:27:31 137.9125
SO-50 17 Jan 18:21:26 18:25:29 33° 245° (WSW) 18:29:30 436.795
CANX-2 17 Jan 18:34:39 18:38:39 43° 72° (ENE) 18:42:43 2200.000
Cosmos 2499 17 Jan 18:37:19 18:43:05 21° 81° (E) 18:48:38 435.465 / 435.565
Cubesat XI-IV 17 Jan 18:39:38 18:44:15 30° 264° (W) 18:48:54 437.490
CUBEBUG 2 17 Jan 18:44:20 18:47:23 20° 67° (ENE) 18:50:26 437.445
BEESAT 3 17 Jan 18:47:51 18:50:18 16° 318° (NW) 18:52:48 437.485
DOVE 4 17 Jan 18:49:15 18:53:14 23° 266° (W) 18:57:05 437.250
LilacSat-2 17 Jan 18:50:06 18:51:51 13° 269° (W) 18:53:36 437.200
SEEDS 17 Jan 18:52:38 18:56:33 39° 72° (ENE) 19:00:32 437.485
STARS 17 Jan 18:52:50 18:53:47 11° 300° (WNW) 18:54:45 437.465
NOAA 15 17 Jan 19:01:31 19:05:04 18° 268° (W) 19:08:39 137.62
CINEMA 3 17 Jan 19:03:21 19:07:47 58° 259° (W) 19:12:04 145.822/145.860
COMPASS 1 17 Jan 19:04:23 19:08:11 35° 71° (ENE) 19:12:01 437.405
AIST 2 17 Jan 19:17:47 19:19:29 12° 108° (ESE) 19:21:12 435.215
UWE-3 17 Jan 19:18:54 19:22:29 29° 70° (ENE) 19:26:05 435.000/436.395/437.385
AAUSAT CUBESAT 2 17 Jan 19:18:54 19:22:46 38° 72° (ENE) 19:26:40 437.432
FUNcube-1 17 Jan 19:24:27 19:27:21 19° 66° (ENE) 19:30:17 145.935
STRAND 1 17 Jan 19:25:22 19:30:24 54° 100° (E) 19:35:27 437.568
BEESAT 2 17 Jan 19:25:42 19:28:06 15° 319° (NW) 19:30:31 435.950
GONETS M04 17 Jan 19:26:44 19:34:26 37° 85° (E) 19:42:11
CUTE 1.7 + AOD 2 17 Jan 19:41:57 19:45:53 38° 262° (W) 19:49:53 437.475
ZACube-1 17 Jan 19:44:43 19:48:26 33° 70° (ENE) 19:52:10 437.345
HO-68 17 Jan 19:57:27 20:04:07 41° 262° (W) 20:10:52 435.675
NOAA 18 17 Jan 20:03:08 20:03:25 10° 272° (W) 20:03:43 137.9125
CANX-2 17 Jan 20:12:03 20:14:43 16° 268° (W) 20:17:26 2200.000
CUBEBUG 2 17 Jan 20:19:58 20:23:49 34° 263° (W) 20:27:37 437.445
HUMSAT D 17 Jan 20:24:56 20:27:21 15° 64° (ENE) 20:29:46 437.325/437.525
Oscar 11 17 Jan 20:26:18 20:30:37 86° 75° (ENE) 20:34:58 145.826/435.025
Cosmos 2499 17 Jan 20:26:49 20:35:24 80° 279° (W) 20:43:22 435.465 / 435.565
SEEDS 17 Jan 20:29:33 20:32:25 18° 268° (W) 20:35:18 437.485
COMPASS 1 17 Jan 20:40:45 20:43:48 20° 267° (W) 20:46:54 437.405
PRISM 17 Jan 20:47:49 20:50:49 19° 94° (E) 20:53:47 437.425
AIST 2 17 Jan 20:53:19 20:57:23 64° 305° (NW) 21:01:34 435.215
AAUSAT CUBESAT 2 17 Jan 20:55:33 20:58:23 18° 268° (W) 21:01:14 437.432
UWE-3 17 Jan 20:55:41 20:58:58 22° 266° (W) 21:02:15 435.000/436.395/437.385
FUNcube-1 17 Jan 20:59:32 21:03:21 36° 263° (W) 21:07:11 145.935
DELFI C3 17 Jan 21:03:19 21:07:19 75° 76° (ENE) 21:11:21 145.870
STRAND 1 17 Jan 21:05:32 21:09:10 20° 297° (WNW) 21:12:48 437.568
ZACube-1 17 Jan 21:21:47 21:24:48 20° 267° (W) 21:27:50 437.345
GONETS M04 17 Jan 21:22:39 21:30:59 49° 285° (WNW) 21:39:26
JAS-2 17 Jan 21:43:15 21:47:15 15° 88° (E) 21:51:22 435.910
CUBEBUG 1 17 Jan 21:47:18 21:48:21 11° 60° (ENE) 21:49:25 437.445
UNISAT 6 17 Jan 21:49:49 21:53:43 30° 96° (E) 21:57:41 437.425
HUMSAT D 17 Jan 21:58:38 22:02:34 46° 261° (W) 22:06:33 437.325/437.525
ESTCUBE 1 17 Jan 22:01:36 22:05:20 26° 67° (ENE) 22:09:05 437.505/2401.250
TIGRISAT 17 Jan 22:03:58 22:08:07 40° 99° (E) 22:12:19 435.000
BY70-1 17 Jan 22:17:43 22:20:36 73° 77° (ENE) 22:23:46 436.1900
ANTELSAT 17 Jan 22:18:15 22:22:38 61° 101° (E) 22:27:05 437.575/2403.000
PRISM 17 Jan 22:22:27 22:26:12 34° 290° (WNW) 22:29:54 437.425
AO-85 17 Jan 22:24:45 22:27:40 19° 44° (NE) 22:30:33 145.980
Cosmos 2499 17 Jan 22:24:56 22:29:43 16° 298° (WNW) 22:34:22 435.465 / 435.565
VELOX 1 17 Jan 22:26:55 22:29:57 18° 64° (ENE) 22:32:59 145.980
AIST 2 17 Jan 22:35:57 22:36:43 10° 325° (NW) 22:37:29 435.215
50 SAT 17 Jan 22:40:38 22:42:39 15° 66° (ENE) 22:44:40 437.505
POPSAT HIP 1 17 Jan 22:47:53 22:49:11 11° 90° (E) 22:50:30 437.405
RS-15 17 Jan 22:49:21 22:59:06 32° 103° (ESE) 23:09:09 29.354- 29.394
DUCHIFAT 1 17 Jan 23:01:42 23:03:57 14° 92° (E) 23:06:13 145.980
NANOSAT C BR1 17 Jan 23:05:10 23:07:58 17° 93° (E) 23:10:45 145.865
DX 1 17 Jan 23:08:30 23:12:00 24° 67° (ENE) 23:15:31 434.975-435.025
UKube-1 17 Jan 23:14:02 23:17:12 20° 65° (ENE) 23:20:23 .
SPROUT 17 Jan 23:17:02 23:21:02 41° 71° (ENE) 23:25:02 437.525
ISS 17 Jan 23:17:23 23:20:32 48° 140° (SE) 23:23:41 145.825
CUBEBUG 1 17 Jan 23:19:32 23:23:58 82° 259° (W) 23:28:24 437.445
JAS-2 17 Jan 23:25:54 23:32:58 83° 104° (ESE) 23:40:42 435.910
UNISAT 6 17 Jan 23:26:42 23:30:19 26° 292° (WNW) 23:34:01 437.425
AISAT 17 Jan 23:27:57 23:32:24 82° 76° (ENE) 23:36:52 437.250
ESTCUBE 1 17 Jan 23:37:57 23:41:59 32° 264° (W) 23:46:03 437.505/2401.250
TIGRISAT 17 Jan 23:41:21 23:44:33 20° 294° (WNW) 23:47:47 435.000
BUGSAT 1 17 Jan 23:48:17 23:50:49 16° 93° (E) 23:53:19 437.445
QB50P1 17 Jan 23:54:30 23:58:42 67° 101° (E) 00:02:54 145.935-145.965
ANTELSAT 17 Jan 23:56:35 23:58:52 14° 297° (WNW) 00:01:10 437.575/2403.000
POLYITAN 1 17 Jan 23:57:40 00:01:54 74° 101° (E) 00:06:08 437.675
QB50P2 17 Jan 23:58:49 00:03:03 81° 101° (E) 00:07:17 145.880/145.840
VELOX 1 18 Jan 00:01:47 00:06:03 45° 261° (W) 00:10:21 145.980
AO-85 18 Jan 00:04:32 00:08:14 41° 243° (WSW) 00:11:55 145.980
50 SAT 18 Jan 00:12:14 00:15:33 36° 262° (W) 00:18:53 437.505
POPSAT HIP 1 18 Jan 00:21:11 00:25:21 62° 285° (WNW) 00:29:31 437.405
DUCHIFAT 1 18 Jan 00:35:51 00:39:54 49° 287° (WNW) 00:43:56 145.980
AIST 1 18 Jan 00:36:16 00:39:31 21° 72° (ENE) 00:42:44
PCSat 18 Jan 00:38:36 00:43:09 28° 109° (ESE) 00:47:44 145.827
NANOSAT C BR1 18 Jan 00:39:55 00:43:51 40° 289° (WNW) 00:47:47 145.865
DX 1 18 Jan 00:44:06 00:48:02 32° 263° (W) 00:51:58 434.975-435.025
UKube-1 18 Jan 00:48:57 00:52:58 38° 261° (W) 00:57:02 .
YUBILEINY 18 Jan 00:49:00 00:57:04 38° 71° (ENE) 01:05:01 435.215
ISS 18 Jan 00:54:17 00:57:09 27° 338° (NNW) 01:00:00 145.825
SPROUT 18 Jan 00:54:17 00:57:07 17° 267° (W) 00:59:58 437.525
TISAT 1 18 Jan 00:55:13 00:59:23 75° 74° (ENE) 01:03:34 437.305
RS-15 18 Jan 00:58:28 01:10:23 78° 305° (NW) 01:22:50 29.354- 29.394
JAS-2 18 Jan 01:12:19 01:17:20 22° 300° (WNW) 01:22:39 435.910
ITUPSAT 1 18 Jan 01:12:22 01:16:10 24° 65° (ENE) 01:20:00 437.325
Gurwin Techsat 1B 18 Jan 01:18:44 01:22:54 23° 93° (E) 01:27:02 435.225
BUGSAT 1 18 Jan 01:22:34 01:26:20 39° 289° (WNW) 01:30:06 437.445
BEESAT 3 18 Jan 01:25:00 01:28:47 40° 51° (NE) 01:32:33 437.485
Oscar 19 18 Jan 01:27:18 01:32:21 50° 100° (E) 01:37:20 437.125/150
QB50P1 18 Jan 01:32:23 01:33:56 12° 298° (WNW) 01:35:28 145.935-145.965
POLYITAN 1 18 Jan 01:35:58 01:37:06 11° 299° (WNW) 01:38:13 437.675
Cosmos 2491 18 Jan 01:37:36 01:45:17 37° 85° (E) 01:52:58 435.465 / 435.565
BEESAT 18 Jan 01:47:59 01:52:36 55° 72° (ENE) 01:57:15 436.000
SWISSCUBE 18 Jan 01:49:14 01:53:55 63° 73° (ENE) 01:58:38 437.505
M-CUBED/EXP-1 PRIME 18 Jan 01:53:06 01:55:27 15° 59° (ENE) 01:57:45 437.505
Cosmos 2504 18 Jan 01:57:40 02:04:54 49° 75° (ENE) 02:11:48 435.465 / 435.565
BEESAT 2 18 Jan 02:03:21 02:07:15 44° 52° (NE) 02:11:07 435.950
ITAMSAT 1 18 Jan 02:06:19 02:08:09 12° 89° (E) 02:09:59 435.822/435.867
MOZHAYETS 4 18 Jan 02:09:46 02:13:32 26° 67° (ENE) 02:17:21
AIST 1 18 Jan 02:13:22 02:17:10 32° 269° (W) 02:20:56
PCSat 18 Jan 02:21:12 02:26:20 43° 307° (NW) 02:31:30 145.827
AUBIESAT-1 18 Jan 02:30:48 02:34:28 27° 64° (ENE) 02:37:55 437.475
ISS 18 Jan 02:32:26 02:34:25 15° 358° (N) 02:36:24 145.825
YUBILEINY 18 Jan 02:45:41 02:54:03 50° 271° (W) 03:02:21 435.215
ITUPSAT 1 18 Jan 02:49:24 02:53:47 37° 262° (W) 02:58:14 437.325
CUBESAT XI-V 18 Jan 02:50:19 02:51:55 12° 60° (ENE) 02:53:32 437.345
Gurwin Techsat 1B 18 Jan 02:57:59 03:03:03 46° 290° (WNW) 03:08:06 435.225
CUSAT 1 18 Jan 02:58:56 03:03:11 31° 86° (E) 03:08:32 437.405
BEESAT 3 18 Jan 03:03:17 03:06:08 19° 248° (WSW) 03:08:58 437.485
AO-7 18 Jan 03:06:28 03:13:57 35° 97° (E) 03:21:22 29.400- 29.500
Oscar 19 18 Jan 03:07:27 03:11:18 21° 297° (WNW) 03:15:07 437.125/150
KKS-1 18 Jan 03:09:40 03:13:45 36° 70° (ENE) 03:17:49 437.445
RS-15 18 Jan 03:14:51 03:25:19 32° 334° (NNW) 03:36:01 29.354- 29.394
PHONESAT 2.4 18 Jan 03:20:43 03:22:34 21° 159° (SSE) 03:24:24 2401.200-2431.200
M-CUBED/EXP-1 PRIME 18 Jan 03:25:05 03:29:31 62° 253° (WSW) 03:33:42 437.505
BEESAT 18 Jan 03:27:48 03:30:43 16° 268° (W) 03:33:38 436.000
SWISSCUBE 18 Jan 03:29:42 03:32:07 14° 270° (W) 03:34:34 437.505
Cosmos 2491 18 Jan 03:33:28 03:41:49 50° 285° (WNW) 03:50:15 435.465 / 435.565
AIST 2 18 Jan 03:37:03 03:39:17 14° 39° (NE) 03:41:31 435.215
BEESAT 2 18 Jan 03:42:00 03:44:42 17° 249° (WSW) 03:47:24 435.950
ITAMSAT 1 18 Jan 03:43:00 03:48:14 83° 287° (WNW) 03:53:27 435.822/435.867
MOZHAYETS 4 18 Jan 03:46:31 03:50:35 31° 264° (W) 03:54:40
Cosmos 2504 18 Jan 03:51:40 03:57:52 30° 276° (W) 04:03:52 435.465 / 435.565
BRITE-PL 18 Jan 03:59:55 04:02:00 13° 87° (E) 04:04:02 437.365/2234.400
AUBIESAT-1 18 Jan 04:04:59 04:08:45 28° 258° (WSW) 04:12:22 437.475
ISS 18 Jan 04:09:06 04:11:46 22° 18° (NNE) 04:14:24 145.825
STARS 18 Jan 04:10:19 04:14:41 75° 76° (ENE) 04:19:04 437.465
CUBESAT XI-V 18 Jan 04:23:53 04:28:35 84° 256° (WSW) 04:33:20 437.345
CUSAT 1 18 Jan 04:40:30 04:45:00 33° 292° (WNW) 04:50:42 437.405
KKS-1 18 Jan 04:46:59 04:50:24 21° 266° (W) 04:53:48 437.445
PHONESAT 2.4 18 Jan 04:54:13 04:56:30 54° 174° (S) 04:58:46 2401.200-2431.200
AO-7 18 Jan 04:58:54 05:06:58 55° 296° (WNW) 05:14:59 29.400- 29.500
DANDE 18 Jan 05:04:04 05:07:35 57° 285° (WNW) 05:12:19 436.750
STRAND 1 18 Jan 05:07:01 05:08:18 11° 57° (ENE) 05:09:36 437.568
AIST 2 18 Jan 05:14:06 05:18:23 89° 235° (SW) 05:22:36 435.215
Cubesat XI-IV 18 Jan 05:17:39 05:20:06 13° 89° (E) 05:22:34 437.490
ITAMSAT 1 18 Jan 05:25:05 05:26:53 12° 303° (WNW) 05:28:40 435.822/435.867
RS-15 18 Jan 05:33:33 05:43:14 25° 9° (N) 05:52:51 29.354- 29.394
NOAA 15 18 Jan 05:35:16 05:39:14 21° 93° (E) 05:43:10 137.62
BRITE-PL 18 Jan 05:36:07 05:41:08 69° 286° (WNW) 05:45:42 437.365/2234.400
GONETS M04 18 Jan 05:36:33 05:42:25 19° 61° (ENE) 05:48:16
ISS 18 Jan 05:45:16 05:48:31 75° 217° (SW) 05:51:46 145.825
HORYU 2 18 Jan 05:46:06 05:50:33 69° 103° (ESE) 05:54:59 437.375
GOMX 1 18 Jan 05:54:00 05:58:32 72° 101° (ESE) 06:02:46 467.674
CUTE-I 18 Jan 06:13:13 06:18:20 45° 99° (E) 06:23:25 437.470
O/OREOS (USA 219) 18 Jan 06:13:18 06:16:56 25° 103° (ESE) 06:20:35 437.305
LilacSat-2 18 Jan 06:20:24 06:24:15 64° 101° (E) 06:28:05 437.200
